User: anonymous   Login
Location: Carri�res
(48.9069°N, 2.1792°E)
Time: 00:08:28
(UTC+00:00)
Language:

Cosmos 1536 Rocket - Orbit

View from above orbital plane
View from above orbital plane
View from above satellite
View from above satellite

Ground track
Ground track

The orbit data is extracted from the following two-line orbital elements,

1 14700U 84013B   21110.53863378  .00000110  00000-0  10444-4 0  9995
2 14700  82.5340 285.6479 0020352  25.4791  32.0203 14.83324630987948
Epoch (UTC): 20 April 2021 12:55:37
Eccentricity: 0.0020352
inclination: 82.5340°
perigee height: 604 km
apogee height: 633 km
right ascension of ascending node: 285.6479°
argument of perigee: 25.4791°
revolutions per day: 14.83324630
mean anomaly at epoch: 32.0203°
orbit number at epoch: 98794

The dashed part of the orbit path shows where the satellite is in the earth's shadow,  

DLR